Weather History for KANQ - March, 2014

Change the Weather History Date:

Monday, March 24, 2014

  Actual Average (KFWA) Record (KFWA)
Temperature  
Mean Temperature 21 °F 41 °F  
Max Temperature 30 °F 52 °F 86 °F (1910)
Min Temperature 12 °F 31 °F 5 °F (1974)
Degree Days  
Heating Degree Days 44 24  
Month to date heating degree days 673  
Since 1 July heating degree days 5271  
Cooling Degree Days 0 0  
Month to date cooling degree days 0  
Year to date cooling degree days 0  
Moisture  
Dew Point 12 °F    
Average Humidity 67    
Maximum Humidity 92    
Minimum Humidity 43    
Precipitation  
Precipitation 0.00 in 0.09 in 1.98 in (1913)
Month to date precipitation 1.99  
Year to date precipitation 6.29  
Snow  
Snow 0.00 in 0.10 in 2.30 in (2013)
Month to date snowfall 3.6  
Since 1 July snowfall 32.0  
Snow Depth -    
Sea Level Pressure  
Sea Level Pressure 30.23 in    
Wind  
Wind Speed 3 mph (WNW)    
Max Wind Speed 14 mph    
Max Gust Speed -    
Visibility 10 miles    
Events      
T = Trace of Precipitation, MM = Missing Value Source: NWS Daily Summary

Daily Weather History Graph

Daily Weather History Graph

Search for Another Location

Airport or City:

Trip Planner

Search our weather history database for the weather conditions in past years. The results will help you decide how hot, cold, wet, or windy it might be!

Date:

Astronomy

Mar. 24, 2014 Rise Set
Actual Time 7:36 AM EDT 7:56 PM EDT
Civil Twilight 7:09 AM EDT 8:24 PM EDT
Nautical Twilight 6:36 AM EDT 8:57 PM EDT
Astronomical Twilight 6:03 AM EDT 9:30 PM EDT
Moon 3:10 AM EDT (3/24) 1:17 PM EDT (3/24)
Length of Visible Light 13h 15m
Length of Day
12h 20m
Last Quarter, 43% of the Moon is Illuminated
Mar 24
Last Quarter
Mar 30
New
Apr 7
First Quarter
Apr 15
Full
Apr 22
Last Quarter

Hourly Weather History & Observations

Time (EDT) Temp. Windchill Dew Point Humidity Pressure Visibility Wind Dir Wind Speed Gust Speed Precip Events Conditions
12:15 AM 17.6 °F - 10.4 °F 73% 30.33 in 10.0 mi Calm Calm - N/A   Clear
12:35 AM 17.6 °F - 10.4 °F 73% 30.33 in 10.0 mi Calm Calm - N/A   Clear
12:55 AM 17.6 °F - 10.4 °F 73% 30.32 in 10.0 mi Calm Calm - N/A   Clear
1:15 AM 17.6 °F - 10.4 °F 73% 30.32 in 10.0 mi Calm Calm - N/A   Clear
1:35 AM 17.6 °F - 12.2 °F 79% 30.32 in 10.0 mi Calm Calm - N/A   Clear
1:55 AM 15.8 °F - 10.4 °F 79% 30.32 in 10.0 mi Calm Calm - N/A   Clear
2:15 AM 15.8 °F - 10.4 °F 79% 30.32 in 10.0 mi Calm Calm - N/A   Clear
2:35 AM 15.8 °F - 10.4 °F 79% 30.32 in 10.0 mi Calm Calm - N/A   Clear
2:55 AM 15.8 °F - 10.4 °F 79% 30.32 in 10.0 mi Calm Calm - N/A   Clear
3:15 AM 15.8 °F - 10.4 °F 79% 30.32 in 10.0 mi Calm Calm - N/A   Clear
3:35 AM 15.8 °F - 10.4 °F 79% 30.31 in 10.0 mi Calm Calm - N/A   Clear
3:55 AM 15.8 °F - 10.4 °F 79% 30.31 in 10.0 mi Calm Calm - N/A   Clear
4:15 AM 15.8 °F - 12.2 °F 86% 30.31 in 10.0 mi Calm Calm - N/A   Clear
4:35 AM 15.8 °F - 12.2 °F 86% 30.31 in 10.0 mi Calm Calm - N/A   Clear
4:55 AM 15.8 °F - 10.4 °F 79% 30.31 in 10.0 mi Calm Calm - N/A   Clear
5:15 AM 15.8 °F - 10.4 °F 79% 30.32 in 10.0 mi Calm Calm - N/A   Clear
5:35 AM 15.8 °F - 10.4 °F 79% 30.31 in 10.0 mi Calm Calm - N/A   Clear
5:55 AM 14.0 °F - 10.4 °F 86% 30.32 in 10.0 mi Calm Calm - N/A   Clear
6:15 AM 14.0 °F - 10.4 °F 86% 30.32 in 10.0 mi Calm Calm - N/A   Clear
6:35 AM 14.0 °F - 10.4 °F 86% 30.31 in 10.0 mi Calm Calm - N/A   Clear
6:55 AM 14.0 °F - 10.4 °F 86% 30.31 in 10.0 mi Calm Calm - N/A   Clear
7:15 AM 14.0 °F - 10.4 °F 86% 30.31 in 10.0 mi Calm Calm - N/A   Clear
7:35 AM 12.2 °F - 10.4 °F 92% 30.30 in 10.0 mi Calm Calm - N/A   Mostly Cloudy
7:55 AM 12.2 °F - 10.4 °F 92% 30.31 in 10.0 mi Calm Calm - N/A   Scattered Clouds
8:15 AM 14.0 °F - 10.4 °F 86% 30.31 in 10.0 mi Calm Calm - N/A   Partly Cloudy
8:35 AM 15.8 °F - 12.2 °F 86% 30.31 in 10.0 mi Calm Calm - N/A   Clear
8:55 AM 17.6 °F - 12.2 °F 79% 30.31 in 10.0 mi Calm Calm - N/A   Mostly Cloudy
9:15 AM 19.4 °F 14.3 °F 12.2 °F 74% 30.30 in 10.0 mi SW 3.5 mph - N/A   Mostly Cloudy
9:35 AM 19.4 °F - 10.4 °F 68% 30.29 in 10.0 mi Calm Calm - N/A   Scattered Clouds
9:55 AM 21.2 °F - 8.6 °F 58% 30.29 in 10.0 mi Calm Calm - N/A   Partly Cloudy
10:15 AM 21.2 °F - 8.6 °F 58% 30.29 in 10.0 mi Calm Calm - N/A   Clear
10:35 AM 21.2 °F 16.4 °F 8.6 °F 58% 30.28 in 10.0 mi Variable 3.5 mph - N/A   Clear
10:55 AM 24.8 °F 19.1 °F 12.2 °F 59% 30.28 in 10.0 mi Variable 4.6 mph - N/A   Clear
11:15 AM 24.8 °F 14.6 °F 12.2 °F 59% 30.28 in 10.0 mi WSW 10.4 mph - N/A   Partly Cloudy
11:35 AM 26.6 °F 19.1 °F 12.2 °F 55% 30.27 in 10.0 mi West 6.9 mph - N/A   Partly Cloudy
11:55 AM 26.6 °F 19.1 °F 12.2 °F 55% 30.27 in 10.0 mi WSW 6.9 mph - N/A   Mostly Cloudy
12:15 PM 26.6 °F 17.5 °F 12.2 °F 55% 30.26 in 10.0 mi West 9.2 mph - N/A   Overcast
12:35 PM 26.6 °F 17.5 °F 12.2 °F 55% 30.26 in 10.0 mi West 9.2 mph - N/A   Overcast
12:55 PM 26.6 °F 16.2 °F 12.2 °F 55% 30.25 in 10.0 mi West 11.5 mph - N/A   Overcast
1:15 PM 26.6 °F 16.8 °F 14.0 °F 59% 30.24 in 10.0 mi West 10.4 mph - N/A   Overcast
1:35 PM 28.4 °F 17.5 °F 12.2 °F 51% 30.24 in 10.0 mi WNW 13.8 mph - N/A   Mostly Cloudy
1:55 PM 30.2 °F 23.4 °F 15.8 °F 55% 30.22 in 10.0 mi Variable 6.9 mph - N/A   Overcast
2:15 PM 28.4 °F 18.0 °F 12.2 °F 51% 30.21 in 10.0 mi West 12.7 mph - N/A   Mostly Cloudy
2:35 PM 28.4 °F 19.1 °F 14.0 °F 55% 30.20 in 10.0 mi West 10.4 mph - N/A   Mostly Cloudy
2:55 PM 28.4 °F 20.4 °F 14.0 °F 55% 30.19 in 10.0 mi WNW 8.1 mph - N/A   Mostly Cloudy
3:15 PM 30.2 °F 21.9 °F 14.0 °F 51% 30.18 in 10.0 mi WSW 9.2 mph - N/A   Overcast
3:35 PM 30.2 °F 20.2 °F 14.0 °F 51% 30.17 in 10.0 mi WSW 12.7 mph - N/A   Mostly Cloudy
3:55 PM 30.2 °F 21.3 °F 15.8 °F 55% 30.16 in 10.0 mi West 10.4 mph - N/A   Scattered Clouds
4:15 PM 30.2 °F 21.9 °F 14.0 °F 51% 30.16 in 10.0 mi West 9.2 mph - N/A   Mostly Cloudy
4:35 PM 30.2 °F 21.9 °F 14.0 °F 51% 30.16 in 10.0 mi WNW 9.2 mph - N/A   Overcast
4:55 PM 30.2 °F 21.3 °F 14.0 °F 51% 30.15 in 10.0 mi WNW 10.4 mph - N/A   Overcast
5:15 PM 30.2 °F 21.9 °F 14.0 °F 51% 30.14 in 10.0 mi NW 9.2 mph - N/A   Mostly Cloudy
5:35 PM 30.2 °F 20.8 °F 15.8 °F 55% 30.14 in 10.0 mi NW 11.5 mph - N/A   Overcast
5:55 PM 30.2 °F 20.8 °F 14.0 °F 51% 30.14 in 10.0 mi WNW 11.5 mph - N/A   Mostly Cloudy
6:15 PM 30.2 °F 20.8 °F 12.2 °F 47% 30.14 in 10.0 mi NNW 11.5 mph - N/A   Scattered Clouds
6:35 PM 28.4 °F 19.7 °F 12.2 °F 51% 30.14 in 10.0 mi NW 9.2 mph - N/A   Partly Cloudy
6:55 PM 28.4 °F 18.0 °F 10.4 °F 47% 30.13 in 10.0 mi NW 12.7 mph - N/A   Clear
7:15 PM 28.4 °F 19.7 °F 8.6 °F 43% 30.13 in 10.0 mi NW 9.2 mph - N/A   Clear
7:35 PM 28.4 °F 22.2 °F 8.6 °F 43% 30.13 in 10.0 mi NW 5.8 mph - N/A   Clear
7:55 PM 26.6 °F 20.0 °F 8.6 °F 47% 30.13 in 10.0 mi NW 5.8 mph - N/A   Clear
8:15 PM 26.6 °F 20.0 °F 8.6 °F 47% 30.12 in 10.0 mi NW 5.8 mph - N/A   Clear
8:35 PM 26.6 °F 22.6 °F 10.4 °F 51% 30.12 in 10.0 mi NW 3.5 mph - N/A   Clear
8:55 PM 24.8 °F - 10.4 °F 54% 30.12 in 10.0 mi Calm Calm - N/A   Clear
9:15 PM 24.8 °F - 12.2 °F 59% 30.12 in 10.0 mi Calm Calm - N/A   Clear
9:35 PM 24.8 °F - 14.0 °F 64% 30.12 in 10.0 mi Calm Calm - N/A   Clear
9:55 PM 23.0 °F - 15.8 °F 74% 30.11 in 10.0 mi Calm Calm - N/A   Clear
10:15 PM 21.2 °F - 17.6 °F 86% 30.11 in 10.0 mi Calm Calm - N/A   Clear
10:35 PM 21.2 °F - 15.8 °F 80% 30.10 in 10.0 mi Calm Calm - N/A   Clear
10:55 PM 21.2 °F - 15.8 °F 80% 30.10 in 10.0 mi Calm Calm - N/A   Clear
11:15 PM 21.2 °F - 15.8 °F 80% 30.09 in 10.0 mi Calm Calm - N/A   Clear
11:35 PM 19.4 °F - 15.8 °F 86% 30.08 in 10.0 mi Calm Calm - N/A   Clear
11:55 PM 19.4 °F - 14.0 °F 80% 30.07 in 10.0 mi Calm Calm - N/A   Clear